Jackson, MI

8:28 AM EST on February 19, 2017 (GMT -0500)
Jackson County-Reynolds

Weather History for KJXN - February, 2014

Change the Weather History Date:

Thursday, February 27, 2014

  Actual Average Record
Temperature  
Mean Temperature 4 °F 29 °F  
Max Temperature 14 °F 38 °F 67 °F (1976)
Min Temperature -6 °F 21 °F -15 °F (2015)
Degree Days  
Heating Degree Days 61 36  
Month to date heating degree days 1275 1048  
Since 1 July heating degree days 5502 4879  
Cooling Degree Days 0 0  
Month to date cooling degree days 0 0  
Year to date cooling degree days 0 0  
Moisture  
Dew Point -1 °F    
Average Humidity 61    
Maximum Humidity 84    
Minimum Humidity 38    
Precipitation  
Precipitation T in 0.05 in 0.55 in (1954)
Month to date precipitation 2.38 1.23  
Year to date precipitation 4.28 2.72  
Sea Level Pressure  
Sea Level Pressure 29.81 in    
Wind  
Wind Speed 12 mph (WNW)    
Max Wind Speed 26 mph    
Max Gust Speed 40 mph    
Visibility 6 miles    
Events Snow    
T = Trace of Precipitation, MM = Missing Value Source: NWS Daily Summary

Daily Weather History Graph

Daily Weather History Graph

Search for Another Location

Airport or City:

Trip Planner

Search our weather history database for the weather conditions in past years. The results will help you decide how hot, cold, wet, or windy it might be!

Date:

Astronomy

Feb. 27, 2014 Rise Set
Actual Time 7:16 AM EST 6:25 PM EST
Civil Twilight 6:48 AM EST 6:53 PM EST
Nautical Twilight 6:15 AM EST 7:26 PM EST
Astronomical Twilight 5:43 AM EST 7:58 PM EST
Moon 5:49 AM EST (2/27) 4:49 PM EST (2/27)
Length of Visible Light 12h 05m
Length of Day
11h 09m
Waning Crescent, 4% of the Moon is Illuminated
Feb 27
Waning Crescent
Mar 1
New
Mar 8
First Quarter
Mar 16
Full
Mar 23
Last Quarter

Hourly Weather History & Observations

Time (EST) Temp. Windchill Dew Point Humidity Pressure Visibility Wind Dir Wind Speed Gust Speed Precip Events Conditions
12:56 AM 10.9 °F -5.4 °F -0.0 °F 61% 29.61 in 10.0 mi SW 15.0 mph 23.0 mph N/A   Clear
1:56 AM 12.0 °F -3.4 °F 1.9 °F 64% 29.58 in 10.0 mi SW 13.8 mph - N/A   Overcast
2:27 AM 12.0 °F -4.5 °F 5.0 °F 73% 29.50 in 2.5 mi SW 16.1 mph 27.6 mph 0.00 in Snow Light Snow
2:41 AM 12.9 °F -1.6 °F 6.1 °F 74% 29.50 in 2.0 mi WSW 12.7 mph - 0.00 in Snow Light Snow
2:48 AM 12.0 °F -2.0 °F 6.1 °F 77% 29.50 in 1.8 mi WSW 11.5 mph 21.9 mph 0.00 in Snow Light Snow
2:56 AM 12.9 °F -2.2 °F 7.0 °F 77% 29.55 in 1.2 mi WSW 13.8 mph - 0.00 in Snow Light Snow
3:56 AM 12.9 °F -0.9 °F 9.0 °F 84% 29.55 in 1.2 mi West 11.5 mph - 0.00 in Snow Light Snow
4:05 AM 12.9 °F -0.9 °F 9.0 °F 84% 29.50 in 2.0 mi West 11.5 mph - 0.00 in Snow Light Snow
4:13 AM 14.0 °F 1.2 °F 10.0 °F 84% 29.49 in 1.2 mi West 10.4 mph - 0.00 in Snow Light Snow
4:22 AM 14.0 °F 1.2 °F 9.0 °F 80% 29.50 in 3.0 mi West 10.4 mph - 0.00 in Snow Light Snow
4:45 AM 12.9 °F -0.9 °F 8.1 °F 81% 29.51 in 5.0 mi WNW 11.5 mph 21.9 mph 0.00 in Snow Light Snow
4:56 AM 12.9 °F -1.6 °F 6.1 °F 74% 29.57 in 10.0 mi WNW 12.7 mph 24.2 mph 0.00 in   Mostly Cloudy
5:06 AM 12.9 °F -1.6 °F 6.1 °F 74% 29.52 in 6.0 mi WNW 12.7 mph 21.9 mph 0.00 in Snow Light Snow
5:17 AM 12.9 °F -2.8 °F 7.0 °F 77% 29.53 in 1.8 mi WNW 15.0 mph 24.2 mph 0.00 in Snow Light Snow
5:40 AM 12.0 °F -6.0 °F 6.1 °F 77% 29.55 in 2.0 mi NW 19.6 mph 31.1 mph 0.00 in Snow Light Snow
5:52 AM 12.2 °F -5.8 °F 3.2 °F 67% 29.56 in 6.0 mi WNW 19.6 mph 32.2 mph 0.00 in   Haze
5:56 AM 12.0 °F -7.3 °F 3.0 °F 67% 29.62 in 6.0 mi WNW 23.0 mph 32.2 mph 0.00 in   Haze
6:56 AM 10.0 °F -7.1 °F 1.0 °F 67% 29.67 in 10.0 mi WNW 16.1 mph 29.9 mph N/A   Partly Cloudy
7:56 AM 9.0 °F -11.4 °F -2.0 °F 61% 29.73 in 5.0 mi WNW 23.0 mph 36.8 mph N/A   Haze
8:49 AM 9.0 °F -10.5 °F -0.0 °F 67% 29.73 in 0.8 mi NNW 20.7 mph 33.4 mph 0.00 in Snow Light Snow
8:56 AM 6.1 °F -13.3 °F 1.0 °F 80% 29.81 in 0.2 mi NW 18.4 mph 33.4 mph 0.00 in Snow Heavy Snow
9:05 AM 6.1 °F -15.2 °F -0.0 °F 76% 29.76 in 0.8 mi NW 23.0 mph 33.4 mph 0.00 in Snow Light Snow
9:16 AM 6.1 °F -13.8 °F -0.0 °F 76% 29.77 in 0.2 mi NNW 19.6 mph 33.4 mph 0.00 in Snow Heavy Snow
9:22 AM 5.0 °F -15.2 °F -2.0 °F 73% 29.78 in 0.5 mi NNW 19.6 mph 31.1 mph 0.00 in Snow Snow
9:27 AM 6.1 °F -10.9 °F -2.9 °F 67% 29.79 in 2.5 mi NNW 13.8 mph 29.9 mph 0.00 in   Mostly Cloudy
9:33 AM 7.0 °F -9.1 °F -2.9 °F 64% 29.79 in 9.0 mi NW 12.7 mph 20.7 mph 0.00 in   Mostly Cloudy
9:56 AM 6.1 °F -12.8 °F -8.0 °F 53% 29.88 in 10.0 mi NNW 17.3 mph 29.9 mph 0.00 in   Mostly Cloudy
10:56 AM 7.0 °F -13.1 °F -11.0 °F 44% 29.93 in 4.0 mi WNW 20.7 mph 40.3 mph N/A   Mostly Cloudy
11:56 AM 8.1 °F -10.7 °F -8.0 °F 48% 29.97 in 9.0 mi NW 18.4 mph 29.9 mph N/A   Scattered Clouds
12:56 PM 9.0 °F -7.9 °F -11.0 °F 40% 30.01 in 10.0 mi NW 15.0 mph 27.6 mph N/A   Mostly Cloudy
1:56 PM 10.0 °F -6.5 °F -11.0 °F 38% 30.02 in 10.0 mi NW 15.0 mph 25.3 mph N/A   Mostly Cloudy
2:56 PM 7.0 °F -9.1 °F -7.1 °F 53% 30.06 in 10.0 mi NW 12.7 mph 20.7 mph N/A   Overcast
3:20 PM 9.0 °F -5.1 °F -2.0 °F 61% 30.00 in 1.8 mi NW 10.4 mph 18.4 mph 0.00 in Snow Light Snow
3:27 PM 8.1 °F -6.2 °F -4.0 °F 58% 30.01 in 2.0 mi NW 10.4 mph - 0.00 in Snow Light Snow
3:35 PM 9.0 °F -4.2 °F -4.0 °F 56% 30.01 in 9.0 mi NNW 9.2 mph - 0.00 in   Mostly Cloudy
3:56 PM 8.1 °F -9.0 °F -8.0 °F 48% 30.07 in 10.0 mi NW 15.0 mph 20.7 mph 0.00 in   Clear
4:56 PM 8.1 °F -6.2 °F -7.1 °F 50% 30.10 in 10.0 mi NNW 10.4 mph - N/A   Partly Cloudy
5:56 PM 7.0 °F -3.3 °F -8.0 °F 51% 30.12 in 10.0 mi NW 5.8 mph - N/A   Clear
6:56 PM 3.9 °F -5.3 °F -9.9 °F 53% 30.16 in 10.0 mi NW 4.6 mph - N/A   Clear
7:56 PM 1.0 °F -8.7 °F -11.0 °F 57% 30.19 in 10.0 mi WNW 4.6 mph - N/A   Clear
8:56 PM 1.0 °F - -11.9 °F 55% 30.21 in 10.0 mi Calm Calm - N/A   Clear
9:56 PM -0.9 °F - -11.0 °F 62% 30.23 in 10.0 mi Calm Calm - N/A   Clear
10:56 PM -2.0 °F - -11.9 °F 63% 30.24 in 10.0 mi Calm Calm - N/A   Clear
11:56 PM -4.0 °F - -11.9 °F 69% 30.25 in 10.0 mi Calm Calm - N/A   Clear